Weather History for Bradford, PA

Change the Weather History Date:

Friday, February 15, 2013

  Actual Average Record
Temperature  
Mean Temperature 29 °F 24 °F  
Max Temperature 35 °F 32 °F 51 °F (2005)
Min Temperature 21 °F 15 °F -14 °F (1987)
Degree Days  
Heating Degree Days 36 36  
Month to date heating degree days 553  
Since 1 July heating degree days 4964  
Cooling Degree Days 0 0  
Month to date cooling degree days 0  
Year to date cooling degree days 0  
Moisture  
Dew Point 22 °F    
Average Humidity 73    
Maximum Humidity 85    
Minimum Humidity 59    
Precipitation  
Precipitation 0.00 in 0.08 in 1.55 in (1990)
Month to date precipitation 1.26  
Year to date precipitation 4.55  
Sea Level Pressure  
Sea Level Pressure 29.92 in    
Wind  
Wind Speed 9 mph (West)    
Max Wind Speed 13 mph    
Max Gust Speed 21 mph    
Visibility 7 miles    
Events Snow    
T = Trace of Precipitation, MM = Missing Value Source: NWS Daily Summary

Daily Weather History Graph

Daily Weather History Graph

Search for Another Location

Airport:

Trip Planner

Search our weather history database for the weather conditions in past years. The results will help you decide how hot, cold, wet, or windy it might be!

Date:

Astronomy

Feb. 15, 2013 Rise Set
Actual Time 7:09 AM EST 5:48 PM EST
Civil Twilight 6:41 AM EST 6:16 PM EST
Nautical Twilight 6:08 AM EST 6:49 PM EST
Astronomical Twilight 5:36 AM EST 7:21 PM EST
Moon 9:39 AM EST (2/15) 11:53 PM EST (2/15)
Length of Visible Light 11h 35m
Length of Day
10h 38m
Waxing Crescent, 30% of the Moon is Illuminated
Feb 15
Waxing Crescent
Feb 17
First Quarter
Feb 25
Full
Mar 4
Last Quarter
Mar 11
New

Hourly Weather History & Observations

Time (EST) Temp. Windchill Dew Point Humidity Pressure Visibility Wind Dir Wind Speed Gust Speed Precip Events Conditions
12:13 AM 35.1 °F 27.9 °F 30.9 °F 85% 29.79 in 7.0 mi SW 9.2 mph - N/A   Overcast
12:53 AM 35.1 °F 28.6 °F 30.0 °F 82% 29.83 in 7.0 mi SW 8.1 mph - N/A   Overcast
1:18 AM 35.1 °F 26.9 °F 30.0 °F 82% 29.79 in 7.0 mi SW 11.5 mph 19.6 mph N/A   Overcast
1:53 AM 35.1 °F 27.4 °F 30.0 °F 82% 29.85 in 7.0 mi West 10.4 mph - N/A   Overcast
2:08 AM 34.0 °F 27.2 °F 27.0 °F 75% 29.80 in 9.0 mi WSW 8.1 mph 19.6 mph N/A   Mostly Cloudy
2:15 AM 34.0 °F 26.6 °F 27.0 °F 75% 29.80 in 9.0 mi West 9.2 mph 17.3 mph N/A   Mostly Cloudy
2:53 AM 33.1 °F 25.5 °F 23.0 °F 66% 29.86 in 10.0 mi WSW 9.2 mph 19.6 mph N/A   Overcast
3:53 AM 32.0 °F 25.6 °F 24.1 °F 73% 29.86 in 10.0 mi WSW 6.9 mph - N/A   Overcast
4:53 AM 32.0 °F 25.6 °F 24.1 °F 73% 29.88 in 10.0 mi WSW 6.9 mph - N/A   Overcast
5:53 AM 30.9 °F 23.5 °F 24.1 °F 76% 29.89 in 10.0 mi West 8.1 mph - N/A   Overcast
6:53 AM 30.9 °F 24.3 °F 19.0 °F 61% 29.91 in 10.0 mi West 6.9 mph 20.7 mph N/A   Overcast
7:02 AM 30.0 °F 21.7 °F 19.9 °F 66% 29.86 in 10.0 mi WSW 9.2 mph - N/A   Overcast
7:53 AM 30.0 °F 20.0 °F 18.0 °F 61% 29.93 in 10.0 mi West 12.7 mph 20.7 mph N/A   Overcast
8:53 AM 30.9 °F 22.2 °F 19.9 °F 64% 29.96 in 10.0 mi WSW 10.4 mph - N/A   Mostly Cloudy
9:53 AM 30.0 °F 21.7 °F 19.9 °F 66% 29.98 in 10.0 mi WSW 9.2 mph 16.1 mph N/A   Overcast
10:49 AM 30.2 °F 24.3 °F 21.2 °F 69% 29.92 in 9.0 mi Variable 5.8 mph - N/A   Overcast
10:53 AM 30.0 °F 24.1 °F 21.0 °F 69% 29.97 in 8.0 mi Variable 5.8 mph - N/A   Overcast
11:12 AM 30.9 °F 22.8 °F 21.0 °F 67% 29.92 in 10.0 mi WSW 9.2 mph - N/A   Overcast
11:45 AM 32.0 °F 24.2 °F 19.9 °F 61% 29.91 in 10.0 mi West 9.2 mph - N/A   Overcast
11:53 AM 33.1 °F 23.9 °F 19.9 °F 59% 29.96 in 10.0 mi SW 12.7 mph 17.3 mph N/A   Overcast
12:53 PM 32.0 °F 23.6 °F 19.0 °F 59% 29.95 in 10.0 mi West 10.4 mph 19.6 mph N/A   Overcast
1:53 PM 32.0 °F 24.8 °F 19.9 °F 61% 29.94 in 4.0 mi West 8.1 mph - 0.00 in Snow Light Snow
2:38 PM 30.9 °F 24.3 °F 23.0 °F 72% 29.89 in 2.0 mi West 6.9 mph - 0.00 in Snow Light Snow
2:53 PM 30.9 °F 25.2 °F 23.0 °F 72% 29.95 in 2.0 mi Variable 5.8 mph - 0.00 in Snow Light Snow
3:02 PM 30.0 °F 24.1 °F 23.0 °F 75% 29.90 in 1.2 mi West 5.8 mph - 0.00 in Snow Light Snow
3:29 PM 30.0 °F 22.4 °F 23.0 °F 75% 29.90 in 2.5 mi WSW 8.1 mph - 0.00 in Snow Light Snow
3:39 PM 30.0 °F 25.2 °F 23.0 °F 75% 29.90 in 1.8 mi Variable 4.6 mph - 0.00 in Snow Light Snow
3:43 PM 30.0 °F 24.1 °F 23.0 °F 75% 29.90 in 3.0 mi Variable 5.8 mph - 0.00 in Snow Light Snow
3:53 PM 30.9 °F 22.8 °F 21.9 °F 69% 29.96 in 9.0 mi West 9.2 mph - 0.00 in   Overcast
4:40 PM 30.0 °F 23.2 °F 21.9 °F 72% 29.91 in 7.0 mi West 6.9 mph - 0.00 in Snow Light Snow
4:46 PM 30.0 °F 21.1 °F 23.0 °F 75% 29.91 in 1.5 mi West 10.4 mph - 0.00 in Snow Light Snow
4:53 PM 28.9 °F 21.1 °F 24.1 °F 82% 29.97 in 0.5 mi WNW 8.1 mph - 0.00 in Snow Snow
5:05 PM 28.9 °F 22.8 °F 25.0 °F 85% 29.91 in 1.5 mi WNW 5.8 mph - 0.00 in Snow Light Snow
5:15 PM 28.9 °F 21.1 °F 24.1 °F 82% 29.92 in 1.8 mi WNW 8.1 mph - 0.00 in Snow Light Snow
5:18 PM 28.9 °F 19.8 °F 23.0 °F 78% 29.92 in 2.0 mi NW 10.4 mph - 0.00 in Snow Light Snow
5:27 PM 28.0 °F 20.0 °F 23.0 °F 81% 29.92 in 3.0 mi WNW 8.1 mph - 0.00 in Snow Light Snow
5:45 PM 28.0 °F 18.6 °F 21.9 °F 78% 29.93 in 9.0 mi WNW 10.4 mph - 0.00 in Snow Light Snow
5:53 PM 28.0 °F 18.6 °F 21.9 °F 78% 29.99 in 9.0 mi WNW 10.4 mph - 0.00 in   Overcast
6:13 PM 28.0 °F 18.1 °F 21.0 °F 75% 29.93 in 10.0 mi NW 11.5 mph - N/A   Overcast
6:53 PM 26.1 °F 16.8 °F 19.0 °F 75% 30.01 in 10.0 mi NW 9.2 mph - 0.00 in   Mostly Cloudy
7:53 PM 24.1 °F 13.7 °F 17.1 °F 75% 30.01 in 10.0 mi NNW 10.4 mph - N/A   Mostly Cloudy
8:53 PM 23.0 °F 17.0 °F 15.1 °F 72% 30.02 in 10.0 mi WNW 4.6 mph - N/A   Overcast
9:44 PM 23.0 °F 13.1 °F 16.0 °F 74% 29.95 in 10.0 mi NW 9.2 mph - N/A   Overcast
9:53 PM 23.0 °F 13.9 °F 16.0 °F 74% 30.02 in 10.0 mi NW 8.1 mph - N/A   Overcast
10:32 PM 23.0 °F 13.1 °F 16.0 °F 74% 29.95 in 10.0 mi WNW 9.2 mph - N/A   Overcast
10:53 PM 23.0 °F 14.7 °F 16.0 °F 74% 30.02 in 10.0 mi NNW 6.9 mph - N/A   Overcast
11:53 PM 21.9 °F 11.7 °F 15.1 °F 75% 30.01 in 10.0 mi NNW 9.2 mph - N/A   Overcast